sat.trackr.live / text

‹ back to catalog

STARLINK-31373

NORAD 58965 · 2024-031A

PAYLOAD ACTIVE UNKNOWN

§ Identity

Operator
Country
US
Launch date
2024-02-15
Launch site
AFWTR
Launch vehicle
Mass (kg)
RCS (m²)

Purposes: comms

External: N2YO · Heavens-Above · Gunter

§ Orbital elements

Epoch: 2026-05-24T19:43:45.514848Z

Period
94.11 min
Inclination
53.1611°
Eccentricity
0.0001100
Mean motion
15.30194996 rev/d
Perigee alt
474.5 km
Apogee alt
476.0 km
Semi-major
6,853.4 km
B*
5.0127e-5
RAAN
302.7660°
Arg perigee
97.2381°
Mean anomaly
262.8744°
Rev number
12,819

§ Raw data

STARLINK-313731 58965U 24031A   26144.82205457  .00001126  00000+0  50127-4 0  99912 58965  53.1611 302.7660 0001100  97.2381 262.8744 15.30194996128199

JSON: /api/v1/satellites/58965 · /tle

For live sub-satellite position, see the globe view (requires WebGL).

§ Visibility from observer

Set your observer location to see the next 7 days of passes ≥ 10°. The values pass through the URL so the page stays shareable.

No JS? Fill the form by hand. The geolocation button needs JavaScript.